When you browse on this site, cookies collect data to enhance your experience and personalize the content and advertising you see.
Visit our Privacy Policy to learn more. By continuing to use the site, you agree to this use of cookies and data.
  • In United Kingdom
  • List of Countries
  • For 7 days
  • Water Temperature
  • Satellite Maps
  • Weather Map
  • Weather Widgets
  • user-avatar
    Login

    Hourly Weather Erd

    Today, 22 February, Friday

    Time Temperature Precipitation Wind Pressure Humidity
    00:00 +8°C° 0.2 mm 3 mps 756 mmHg 82%
    01:00 +6°C° 0.2 mm 4 mps 756 mmHg 82%
    02:00 +6°C° 0.1 mm 4 mps 756 mmHg 82%
    03:00 +6°C° 0.1 mm 5 mps 755 mmHg 81%
    04:00 +5°C° 0.1 mm 6 mps 755 mmHg 80%
    05:00 +5°C° 0 mm 6 mps 755 mmHg 81%
    06:00 +5°C° 0 mm 6 mps 754 mmHg 82%
    07:00 +5°C° 0 mm 6 mps 754 mmHg 83%
    08:00 +7°C° 0 mm 6 mps 754 mmHg 79%
    09:00 +8°C° 0 mm 7 mps 754 mmHg 75%
    10:00 +8°C° 0 mm 7 mps 755 mmHg 72%
    11:00 +9°C° 0 mm 7 mps 755 mmHg 68%
    12:00 +9°C° 0 mm 7 mps 756 mmHg 65%
    13:00 +9°C° 0 mm 7 mps 757 mmHg 62%
    14:00 +8°C° 0.1 mm 7 mps 758 mmHg 54%
    15:00 +6°C° 0.1 mm 7 mps 759 mmHg 47%
    16:00 +4°C° 0.1 mm 7 mps 760 mmHg 39%
    17:00 +3°C° 0 mm 7 mps 761 mmHg 39%
    18:00 0°C° 0 mm 7 mps 762 mmHg 39%
    19:00 -1°C° 0 mm 7 mps 764 mmHg 39%
    20:00 -2°C° 0 mm 7 mps 765 mmHg 39%
    21:00 -3°C° 0 mm 7 mps 766 mmHg 40%
    22:00 -4°C° 0 mm 7 mps 767 mmHg 40%
    23:00 -4°C° 0 mm 6 mps 767 mmHg 39%

    Tomorrow, 23 February, Saturday

    Time Temperature Precipitation Wind Pressure Humidity
    00:00 -4°C° 0 mm 6 mps 768 mmHg 38%
    01:00 -5°C° 0 mm 6 mps 768 mmHg 36%
    02:00 -5°C° 0 mm 5 mps 768 mmHg 37%
    03:00 -5°C° 0 mm 5 mps 768 mmHg 37%
    04:00 -4°C° 0 mm 4 mps 768 mmHg 37%
    05:00 -4°C° 0 mm 4 mps 769 mmHg 37%
    06:00 -4°C° 0 mm 4 mps 769 mmHg 38%
    07:00 -4°C° 0 mm 4 mps 769 mmHg 38%
    08:00 -4°C° 0 mm 4 mps 769 mmHg 36%
    09:00 -4°C° 0 mm 5 mps 769 mmHg 34%
    10:00 -2°C° 0 mm 5 mps 770 mmHg 32%
    11:00 -2°C° 0 mm 5 mps 769 mmHg 30%
    12:00 -1°C° 0 mm 5 mps 769 mmHg 29%
    13:00 0°C° 0 mm 5 mps 769 mmHg 27%
    14:00 0°C° 0 mm 5 mps 769 mmHg 27%
    15:00 0°C° 0 mm 4 mps 769 mmHg 26%
    16:00 0°C° 0 mm 4 mps 768 mmHg 26%
    17:00 -1°C° 0 mm 4 mps 768 mmHg 30%
    18:00 0°C° 0 mm 3 mps 769 mmHg 33%
    19:00 -1°C° 0 mm 3 mps 769 mmHg 36%
    20:00 -2°C° 0 mm 3 mps 769 mmHg 38%
    21:00 -2°C° 0 mm 2 mps 769 mmHg 40%
    22:00 -2°C° 0 mm 2 mps 769 mmHg 42%
    23:00 -2°C° 0 mm 2 mps 769 mmHg 42%

    Day after tomorrow, 24 February, Sunday

    Time Temperature Precipitation Wind Pressure Humidity
    00:00 -2°C° 0 mm 2 mps 769 mmHg 42%
    01:00 -3°C° 0 mm 2 mps 769 mmHg 42%
    02:00 -3°C° 0 mm 2 mps 769 mmHg 42%
    03:00 -3°C° 0 mm 2 mps 769 mmHg 42%
    04:00 -1°C° 0 mm 1 mps 769 mmHg 41%
    05:00 -1°C° 0 mm 1 mps 769 mmHg 41%
    06:00 -1°C° 0 mm 1 mps 769 mmHg 42%
    07:00 -1°C° 0 mm 1 mps 769 mmHg 42%
    08:00 0°C° 0 mm 1 mps 769 mmHg 38%
    09:00 +1°C° 0 mm 1 mps 770 mmHg 34%
    10:00 +2°C° 0 mm 1 mps 770 mmHg 30%
    11:00 +3°C° 0 mm 1 mps 770 mmHg 28%
    12:00 +4°C° 0 mm 1 mps 769 mmHg 27%
    13:00 +5°C° 0 mm 1 mps 769 mmHg 25%
    14:00 +5°C° 0 mm 1 mps 769 mmHg 26%
    15:00 +5°C° 0 mm 1 mps 769 mmHg 27%
    16:00 +5°C° 0 mm 1 mps 769 mmHg 27%
    17:00 +5°C° 0 mm 1 mps 769 mmHg 31%
    18:00 +4°C° 0 mm 1 mps 769 mmHg 34%
    19:00 +2°C° 0 mm 0 mps 769 mmHg 37%
    20:00 +2°C° 0 mm 1 mps 769 mmHg 38%
    21:00 +2°C° 0 mm 1 mps 769 mmHg 40%
    22:00 +2°C° 0 mm 1 mps 769 mmHg 41%
    23:00 +2°C° 0 mm 1 mps 769 mmHg 42%

    25 February, Monday

    Time Temperature Precipitation Wind Pressure Humidity
    00:00 +2°C° 0 mm 1 mps 769 mmHg 43%
    01:00 +2°C° 0 mm 1 mps 769 mmHg 44%
    02:00 +2°C° 0 mm 1 mps 769 mmHg 45%
    03:00 +1°C° 0 mm 1 mps 769 mmHg 45%
    04:00 +1°C° 0 mm 1 mps 768 mmHg 46%
    05:00 +1°C° 0 mm 1 mps 768 mmHg 46%
    06:00 +1°C° 0 mm 1 mps 768 mmHg 46%
    07:00 +1°C° 0 mm 1 mps 768 mmHg 46%
    08:00 +3°C° 0 mm 1 mps 768 mmHg 42%
    09:00 +4°C° 0 mm 1 mps 768 mmHg 39%
    10:00 +5°C° 0 mm 2 mps 768 mmHg 35%
    11:00 +6°C° 0 mm 2 mps 768 mmHg 35%
    12:00 +7°C° 0 mm 2 mps 767 mmHg 34%
    13:00 +8°C° 0 mm 2 mps 767 mmHg 34%
    14:00 +8°C° 0 mm 2 mps 766 mmHg 36%
    15:00 +8°C° 0 mm 2 mps 766 mmHg 39%
    16:00 +9°C° 0 mm 2 mps 765 mmHg 41%
    17:00 +8°C° 0 mm 2 mps 765 mmHg 46%
    18:00 +7°C° 0 mm 1 mps 765 mmHg 50%
    19:00 +6°C° 0 mm 1 mps 765 mmHg 55%
    20:00 +6°C° 0 mm 1 mps 765 mmHg 57%
    21:00 +6°C° 0 mm 1 mps 765 mmHg 59%
    22:00 +6°C° 0 mm 1 mps 765 mmHg 62%
    23:00 +5°C° 0 mm 1 mps 764 mmHg 64%

    26 February, Tuesday

    Time Temperature Precipitation Wind Pressure Humidity
    00:00 +5°C° 0 mm 1 mps 764 mmHg 66%
    01:00 +4°C° 0 mm 1 mps 764 mmHg 69%
    02:00 +4°C° 0 mm 1 mps 764 mmHg 73%
    03:00 +3°C° 0 mm 2 mps 763 mmHg 77%
    04:00 +2°C° 0 mm 2 mps 763 mmHg 81%
    05:00 +2°C° 0 mm 2 mps 763 mmHg 82%
    06:00 +2°C° 0 mm 2 mps 763 mmHg 83%
    07:00 +2°C° 0 mm 2 mps 762 mmHg 85%
    08:00 +3°C° 0 mm 2 mps 762 mmHg 78%
    09:00 +4°C° 0 mm 3 mps 762 mmHg 70%
    10:00 +7°C° 0 mm 3 mps 762 mmHg 63%
    11:00 +8°C° 0 mm 3 mps 761 mmHg 58%
    12:00 +10°C° 0 mm 4 mps 761 mmHg 53%
    13:00 +12°C° 0 mm 4 mps 760 mmHg 49%
    14:00 +10°C° 0 mm 5 mps 760 mmHg 51%
    15:00 +10°C° 0 mm 5 mps 759 mmHg 54%
    16:00 +9°C° 0 mm 6 mps 759 mmHg 57%
    17:00 +9°C° 0 mm 6 mps 759 mmHg 58%
    18:00 +8°C° 0 mm 6 mps 759 mmHg 58%
    19:00 +8°C° 0 mm 5 mps 759 mmHg 59%
    20:00 +7°C° 0 mm 5 mps 759 mmHg 63%
    21:00 +7°C° 0 mm 4 mps 759 mmHg 67%
    22:00 +6°C° 0 mm 4 mps 759 mmHg 71%
    23:00 +5°C° 0 mm 4 mps 759 mmHg 75%

    27 February, Wednesday

    Time Temperature Precipitation Wind Pressure Humidity
    00:00 +5°C° 0 mm 4 mps 759 mmHg 78%
    01:00 +4°C° 0 mm 4 mps 759 mmHg 82%
    02:00 +4°C° 0 mm 4 mps 759 mmHg 81%
    03:00 +3°C° 0 mm 4 mps 759 mmHg 80%
    04:00 +2°C° 0 mm 5 mps 759 mmHg 79%
    05:00 +3°C° 0 mm 4 mps 759 mmHg 79%
    06:00 +1°C° 0 mm 4 mps 759 mmHg 80%
    07:00 +1°C° 0 mm 4 mps 760 mmHg 80%
    08:00 +4°C° 0 mm 4 mps 760 mmHg 72%
    09:00 +5°C° 0 mm 4 mps 760 mmHg 64%
    10:00 +7°C° 0 mm 4 mps 760 mmHg 57%
    11:00 +8°C° 0 mm 4 mps 760 mmHg 51%
    12:00 +10°C° 0 mm 3 mps 759 mmHg 44%
    13:00 +12°C° 0 mm 3 mps 759 mmHg 38%
    14:00 +12°C° 0 mm 3 mps 759 mmHg 38%
    15:00 +12°C° 0 mm 3 mps 758 mmHg 38%
    16:00 +12°C° 0 mm 3 mps 758 mmHg 37%
    17:00 +12°C° 0 mm 2 mps 758 mmHg 41%
    18:00 +10°C° 0 mm 2 mps 758 mmHg 46%
    19:00 +8°C° 0 mm 2 mps 758 mmHg 50%
    20:00 +8°C° 0 mm 2 mps 757 mmHg 51%
    21:00 +7°C° 0 mm 2 mps 757 mmHg 53%
    22:00 +7°C° 0 mm 2 mps 757 mmHg 54%
    23:00 +6°C° 0 mm 2 mps 756 mmHg 54%
    Show more